1998-067JA

Last updated on Fri May 20 2016 09:36:28 GMT+0000 (Coordinated Universal Time)

1 41480U 98067JA 16141.19326557 .00034545 00000-0 50220-3 0 9991 2 41480 51.6437 197.6680 0001806 304.2571 147.3448 15.55438049 442

Satellite not in orbit